• Join FlightAware (Why Join?)
  • Login
  • US Flag 
04:22AM EDT


 

Airport Tracker/Info


-or-


 

Live Flight TrackerFlight Track Log ✈ SWA17 ✈ 03-Aug-2013 ✈ KBWI - KCHS

Flight Track Log - Related Links

Times and Time Zones

All times are in EDT time to prevent confusion due to time zone crossing. See the SWA17 flight status page for this flight to view local times or setup timezone preferences in your user account.

Time Position Orientation Groundspeed Altitude Reporting Facility
EDT Latitude Longitude Course Direction KTS MPH feet Rate Location/Type
08:47AM 39.1500 -76.7500 180° South 223 257 3,300  Level Potomac TRACON
08:48AM 39.1000 -76.7000 142° Southeast 291 335 5,200 1,980 Climbing Potomac TRACON
08:49AM 39.0500 -76.6333 134° Southeast 286 329 7,100 2,100 Climbing Potomac TRACON
08:50AM 38.9833 -76.5833 150° Southeast 292 336 9,400 2,520 Climbing Potomac TRACON
08:51AM 38.9000 -76.5333 155° Southeast 330 380 12,200 1,440 Climbing Potomac TRACON
08:52AM 38.6134 -76.9957 180° South  Level Estimated
08:53AM 38.7258 -76.5817 192° South 307 353 14,100  Level Washington Center
08:54AM 38.6544 -76.6417 213° Southwest 307 353 17,000 2,460 Climbing Washington Center
08:55AM 38.5808 -76.7097 216° Southwest 321 369 19,100 2,340 Climbing Washington Center
08:56AM 38.4786 -76.7189 184° South 345 397 21,700 2,400 Climbing Washington Center
08:58AM 38.2578 -76.6839 173° South 395 455 26,300 1,980 Climbing Washington Center
08:59AM 38.1372 -76.6689 174° South 420 483 27,800 1,560 Climbing Washington Center
09:00AM 38.0142 -76.6514 174° South 441 507 29,400 1,500 Climbing Washington Center
09:01AM 37.8911 -76.6547 181° South 446 513 30,900 1,260 Climbing Washington Center
09:02AM 37.7658 -76.6689 185° South 446 513 32,000 540 Climbing Washington Center
09:03AM 37.6406 -76.6856 186° South 451 519 32,000  Level Washington Center
09:04AM 37.5131 -76.7019 186° South 451 519 32,000  Level Washington Center
09:05AM 37.3897 -76.7314 191° South 456 525 32,000  Level Washington Center
09:06AM 37.2600 -76.7844 198° South 451 519 32,000  Level Washington Center
09:07AM 37.1428 -76.8347 199° South 451 519 32,000  Level Washington Center
09:08AM 37.0253 -76.8847 199° South 451 519 32,000  Level Washington Center
09:09AM 36.9058 -76.9322 198° South 451 519 32,000  Level Washington Center
09:10AM 36.7886 -76.9847 200° South 451 519 32,000  Level Washington Center
09:11AM 36.6772 -77.0422 202° Southwest 451 519 32,000  Level Washington Center
09:12AM 36.5781 -77.1308 216° Southwest 441 507 32,000 240 Level Washington Center
09:13AM 36.4789 -77.2219 216° Southwest 447 514 32,500 960 Climbing Washington Center
09:14AM 36.3794 -77.3075 215° Southwest 442 509 34,000 720 Climbing Washington Center
09:15AM 36.2844 -77.3958 217° Southwest 437 503 34,000  Level Washington Center
09:16AM 36.2042 -77.4633 214° Southwest 437 503 34,000  Level Washington Center
09:17AM 36.0983 -77.5561 215° Southwest 437 503 34,000  Level Washington Center
09:18AM 36.0008 -77.6433 216° Southwest 437 503 34,000  Level Washington Center
09:19AM 35.9014 -77.7281 215° Southwest 437 503 34,000  Level Washington Center
09:20AM 35.8017 -77.8125 214° Southwest 432 497 34,000  Level Washington Center
09:21AM 35.7019 -77.8992 215° Southwest 432 497 34,000  Level Washington Center
09:22AM 35.6000 -77.9856 215° Southwest 432 497 34,000  Level Washington Center
09:23AM 35.5003 -78.0694 214° Southwest 437 503 34,000  Level Washington Center
09:24AM 35.3961 -78.1578 215° Southwest 443 510 34,000  Level Washington Center
09:25AM 35.2900 -78.2411 213° Southwest 449 517 34,000  Level Washington Center
09:26AM 35.1839 -78.3214 212° Southwest 449 517 34,000  Level Washington Center
09:27AM 35.0778 -78.4042 213° Southwest 449 517 34,000  Level Washington Center
09:28AM 34.9694 -78.4864 212° Southwest 454 522 34,000 -1,020 Level Washington Center
09:30AM 34.7314 -78.6664 212° Southwest 443 510 30,900 -1,740 Descending Jacksonville Center
09:31AM 34.6319 -78.7444 213° Southwest 438 504 28,600 -1,500 Descending Jacksonville Center
09:32AM 34.5342 -78.8172 212° Southwest 438 504 28,000 -300 Descending Jacksonville Center
09:33AM 34.4386 -78.8972 215° Southwest 432 497 28,000 -120 Level Jacksonville Center
09:34AM 34.3408 -78.9722 212° Southwest 425 489 27,800 -600 Descending Jacksonville Center
09:35AM 34.2367 -79.0397 208° Southwest 425 489 26,800 -1,020 Descending Jacksonville Center
09:36AM 34.1294 -79.0869 200° South 419 482 25,800 -1,020 Descending Jacksonville Center
09:37AM 34.0244 -79.1342 200° South 414 476 24,800 -1,080 Descending Jacksonville Center
09:38AM 33.9194 -79.1811 200° South 408 470 23,700 -1,620 Descending Jacksonville Center
09:39AM 33.8164 -79.2256 200° South 402 463 21,600 -2,100 Descending Jacksonville Center
09:40AM 33.7242 -79.2844 208° Southwest 395 455 19,600 -1,860 Descending Jacksonville Center
09:41AM 33.6528 -79.3397 213° Southwest 353 406 17,900 -1,800 Descending Jacksonville Center
09:42AM 33.5711 -79.4003 212° Southwest 353 406 16,000 -1,980 Descending Jacksonville Center
09:43AM 33.4933 -79.4606 213° Southwest 353 406 14,000 -1,980 Descending Jacksonville Center
09:44AM 33.4156 -79.5158 211° Southwest 343 395 12,100 -1,560 Descending Jacksonville Center
09:45AM 33.3419 -79.5733 213° Southwest 332 382 10,900 -1,200 Descending Jacksonville Center
09:46AM 33.2811 -79.6378 222° Southwest 312 359 9,700 -1,620 Descending Jacksonville Center
09:47AM 33.2350 -79.7139 234° Southwest 293 337 7,700 -1,980 Descending Jacksonville Center
09:48AM 33.1847 -79.7853 230° Southwest 288 331 5,800 -1,500 Descending Jacksonville Center
09:49AM 33.1403 -79.8536 232° Southwest 280 322 4,800 -780 Descending Jacksonville Center
09:50AM 33.1019 -79.9094 231° Southwest 252 290 4,300 -660 Descending Jacksonville Center
09:51AM 33.0656 -79.9506 223° Southwest 212 244 3,500 -900 Descending Jacksonville Center
09:52AM 33.0200 -79.9742 203° Southwest 189 217 2,600 -900 Descending Jacksonville Center
09:54AM 32.8986 -80.0405 203° Southwest  Level Estimated
10:01AM 32.8986 -80.0405 203° Southwest  Level Estimated
10:02AM 32.8986 -80.0405 203° Southwest  Level Estimated
10:03AM 32.8986 -80.0405 203° Southwest  Level Estimated